This demonstration page uses our WeatherBlox Daily Observations layout. Learn more.

Left ArrowRight Arrow

Hourly Observations for May 31, 2016

Temp ( °F °C ) Dew Point ( °F °C ) Humidity (%) Winds ( mph kmh ) Pressure ( in mb ) Visibility ( mi km ) Precip ( " mm )
12:51 am 00:51 Clear 69 20.6 19 -7.2 15 15 NNW 5 7 29.71 1006 10 16 0.00 0.00
1:51 am 01:51 Clear 68 20 18 -7.8 15 15 NW 7 11 29.70 1006 10 16 0.00 0.00
2:51 am 02:51 Clear 61 16.1 19 -7.2 20 20 SE 6 9 29.72 1006 10 16 0.00 0.00
3:51 am 03:51 Clear 60 15.6 18 -7.8 19 19 Calm 29.73 1007 10 16 0.00 0.00
4:51 am 04:51 Clear 59 15 18 -7.8 20 20 E 3 6 29.74 1007 10 16 0.00 0.00
5:51 am 05:51 Sunny 59 15 19 -7.2 21 21 SE 3 6 29.75 1008 10 16 0.00 0.00
6:51 am 06:51 Sunny 65 18.3 20 -6.7 18 18 E 6 9 29.77 1008 10 16 0.00 0.00
7:51 am 07:51 Sunny 77 25 30 -1.1 18 18 ENE 10 17 29.75 1007 10 16 0.00 0.00
8:51 am 08:51 Sunny 80 26.7 29 -1.7 15 15 VRB 3 6 29.75 1007 10 16 0.00 0.00
9:51 am 09:51 Sunny 83 28.3 33 0.6 17 17 SSE 9 15 29.74 1007 10 16 0.00 0.00
10:51 am 10:51 Sunny 86 30 35 1.7 16 16 SE 5 7 29.72 1007 10 16 0.00 0.00
11:51 am 11:51 Sunny 87 30.6 34 1.1 15 15 SSE 9 15 29.70 1006 10 16 0.00 0.00
12:51 pm 12:51 Sunny 89 31.7 31 -0.6 12 12 SSW 12 19 29.67 1005 10 16 0.00 0.00
1:51 pm 13:51 Sunny 90 32.2 23 -5 9 9 undefined N/A 29.64 1004 10 16 0.00 0.00
2:51 pm 14:51 Sunny 89 31.7 26 -3.3 10 10 W 15 24 29.64 1004 10 16 0.00 0.00
3:51 pm 15:51 Sunny 88 31.1 30 -1.1 12 12 W 14 22 29.63 1004 10 16 0.00 0.00
4:51 pm 16:51 Sunny 89 31.7 30 -1.1 12 12 SSW 8 13 29.63 1003 10 16 0.00 0.00
5:51 pm 17:51 Sunny 88 31.1 30 -1.1 12 12 NNE 7 11 29.63 1003 10 16 0.00 0.00
6:51 pm 18:51 Sunny 86 30 30 -1.1 13 13 NNE 12 19 29.64 1004 10 16 0.00 0.00
7:51 pm 19:51 Clear 83 28.3 29 -1.7 14 14 NE 10 17 29.64 1004 10 16 0.00 0.00
8:51 pm 20:51 Clear 82 27.8 32 0 16 16 E 15 24 29.66 1005 10 16 0.00 0.00
9:51 pm 21:51 Clear 79 26.1 31 -0.6 17 17 NNW 5 7 29.68 1005 10 16 0.00 0.00
10:51 pm 22:51 Partly Cloudy 79 26.1 33 0.6 19 19 S 14 22 29.71 1006 10 16 0.00 0.00
11:51 pm 23:51 Clear 78 25.6 32 0 19 19 S 14 22 29.70 1006 10 16 0.00 0.00

Powered by AerisWeather